Bookmark and Share
Track history (hours):
 

Kaami

Last reported at 2014-Apr-23 13:31 UTC. Time now 2014-Apr-24 04:18 UTC.
Position N 69°41' E 019°01'.

Length 90 m; draft 4.5 m.

Type: Cargo ship. MMSI: 308542000.

NotesDate/timePositionNaut miles runAvg speedWind from/ knotsBaromVisibWave heightAir tempDewpointWater temp
2014-Apr-23 13:31N 69°41' E 019°01'  
2014-Apr-19 19:25N 59°15' E 004°42'7 8.3
2014-Apr-19 18:33N 59°09' E 004°49'8 8.2
2014-Apr-19 17:33N 59°02' E 004°57'8 8.0
2014-Apr-19 16:33N 58°55' E 005°06'8 8.1
2014-Apr-19 15:34N 58°48' E 005°14'9 8.6
2014-Apr-19 14:33N 58°41' E 005°24'9 9.4
2014-Apr-19 13:33N 58°33' E 005°34'9 9.6
2014-Apr-19 12:34N 58°26' E 005°46'10 9.6
2014-Apr-19 11:33N 58°20' E 005°59'10 9.7
2014-Apr-19 10:33N 58°13' E 006°12'10 9.6
2014-Apr-19 09:33N 58°06' E 006°25'118 8.9
2014-Apr-18 20:18N 57°49' E 010°05'6 8.4
2014-Apr-18 19:33N 57°48' E 010°16'8 8.0
2014-Apr-18 18:33N 57°47' E 010°31'8 8.1
2014-Apr-18 17:33N 57°45' E 010°46'8 8.4
2014-Apr-18 16:33N 57°37' E 010°46'9 8.5
2014-Apr-18 15:28N 57°28' E 010°44'  
2014-Apr-16 07:17N 57°26' E 010°33'0 0.0
2014-Apr-16 06:29N 57°26' E 010°33'0 0.0
2014-Apr-16 05:32N 57°26' E 010°33'0 0.0
2014-Apr-16 04:26N 57°26' E 010°33'0 0.0
2014-Apr-16 03:20N 57°26' E 010°33'0 0.0
2014-Apr-16 02:26N 57°26' E 010°33'0 0.0
2014-Apr-16 01:26N 57°26' E 010°33'0 0.0
2014-Apr-16 00:29N 57°26' E 010°33'0 0.0
2014-Apr-15 23:26N 57°26' E 010°33'0 0.0
2014-Apr-15 22:17N 57°26' E 010°33'0 0.0
2014-Apr-15 21:26N 57°26' E 010°33'0 0.1
2014-Apr-15 18:18N 57°26' E 010°33'9 4.9
2014-Apr-15 16:33N 57°34' E 010°41'9 8.5
2014-Apr-15 15:33N 57°42' E 010°43'6 5.7
2014-Apr-15 14:33N 57°47' E 010°36'8 3.9
2014-Apr-15 12:34N 57°47' E 010°22'7 7.3
2014-Apr-15 11:34N 57°48' E 010°08'127 7.5
2014-Apr-14 18:33N 58°11' E 006°12'9 8.7
2014-Apr-14 17:34N 58°17' E 006°00'9 8.6
2014-Apr-14 16:34N 58°23' E 005°48'9 8.9
2014-Apr-14 15:34N 58°30' E 005°37'34 8.6
2014-Apr-14 11:33N 58°58' E 005°00'8 8.1
2014-Apr-14 10:33N 59°05' E 004°52'  

Dump ship's entire track history

sailing weather and tide predictions

Kaami — C6VO9 — position and weather